Volver al catálogo

XIWANG-5 02

ActivoRadioaficionadoVLEO
NORAD 67069·PAYLOAD·🇨🇳 China

Lanzado Dec 13, 2025 desde Jiuquan Satellite Launch Center

Loading…

Próximos Pases (próximas 24 horas)

TLE

ActualizadoSource: Space-Track

Época: Sep 14, 2026, 16:07 UTC

1 67069U 25296A   26257.67204871  .00007627  00000-0  37977-3 0  9997
2 67069  41.3528 330.6734 0004874  16.9869 343.1115 15.17770187 41839

Sigue XIWANG-5 02 en tiempo real con AllMySat

Download on the App Store